Regional Weather Roundup
Issued by NWS

Home | Current Version | Previous Version | Text Only | Print | Product List | Glossary On
Versions: 1 2 3 4 5 6 7 8 9 10 11 12 13 14 15 16 17 18 19 20 21 22 23 24 25 26 27 28 29 30 31 32 33 34 35 36 37 38 39 40 41 42 43 44 45 46 47 48 49 50
000
ASUS45 KSLC 241810
RWRUT

UTAH REGIONAL WEATHER ROUNDUP
NATIONAL WEATHER SERVICE SALT LAKE CITY UT
1200 PM MDT TUE MAY 24 2016

UTZ001>011-023>025-241900-

NORTHERN UTAH

CITY           SKY/WX    TMP DP  RH WIND       PRES   REMARKS
BRIGHAM CITY     N/A     64  34  32 CALM      29.81F
HILL AFB       MOSUNNY   64  38  37 SW12      29.82F
LOGAN          SUNNY     62  40  44 N7        29.82F
OGDEN          MOSUNNY   65  38  36 MISG      29.81S
PROVO AIRPORT  MOSUNNY   66  30  26 VRB5      29.82F
SALT LAKE CITY MOSUNNY   71  30  21 S18       29.78F
VERNAL         SUNNY     65  32  29 VRB3      29.86F
WENDOVER       MOSUNNY   64  34  32 N10G17    29.83S
HEBER CITY     LGT RAIN  52  34  50 CALM      29.86R
WEST JORDAN    SUNNY     68  36  30 SE15G23   29.81F

$$

UTZ012>022-026-027-241900-

SOUTHERN/CENTRAL UTAH

CITY           SKY/WX    TMP DP  RH WIND       PRES   REMARKS
BLANDING       SUNNY     66  20  17 SW18G25   30.04S
BRYCE CANYON   PTSUNNY   56  19  23 S21G32    29.99R
CEDAR CITY     MOSUNNY   65  24  21 SW22G28   29.89R
DELTA          MOSUNNY   63  27  25 W5        29.85F
HANKSVILLE     MOSUNNY   73  21  14 SW16G22   29.86F
MILFORD        SUNNY     68  23  18 S13G21    29.84F
MOAB/CYNLANDS  MOSUNNY   72  20  14 S10       29.84F
PRICE          PTSUNNY   65  22  19 S14G22    29.86F
ST GEORGE      MOCLDY    75  28  17 SW22G28   29.84S

$$

REGIONAL REPORTS     COLORADO/ARIZONA

CITY           SKY/WX    TMP DP  RH WIND       PRES   REMARKS
CRAIG, CO      SUNNY     68  26  20 W20G28    29.90F
GRAND JUNCTION SUNNY     71  25  17 W10       29.86F
RIFLE          CLOUDY    71  25  17 W18       29.88F
MONTROSE       CLOUDY    71  21  15 W17       29.92F
CORTEZ         SUNNY     70  24  17 SW23G29   30.00R
PAGE, AZ       SUNNY     72  20  14 SW7G20    29.88R
GRAND CANYON   MOSUNNY   61  25  25 SW21G36   30.02R
KINGMAN        SUNNY     71  33  24 SW22G33   29.91R
FLAGSTAFF      SUNNY     55  30  38 SW18G29   30.05R

$$

REGIONAL REPORTS    NEVADA/IDAHO/WYOMING

CITY           SKY/WX    TMP DP  RH WIND       PRES   REMARKS
LAS VEGAS, NV  MOSUNNY   72  33  24 SW23G30   29.77F
ELY            PTSUNNY   55  32  41 SE10      29.88S
ELKO           LGT RAIN  56  40  55 NE13      29.87S
POCATELLO, ID  PTSUNNY   59  40  49 CALM      29.86F
BURLEY         PTSUNNY   57  42  57 NW6       29.85F
EVANSTON, WY   CLOUDY    53  35  50 E13       29.91F
ROCK SPRINGS   MOSUNNY   60  29  30 E9        29.90F
KEMMERER         N/A     54  30  40 E9G16     29.93F

$$



USA.gov is the U.S. government's official web portal to all federal, state and local government web resources and services.